This is the latest recevied weather packets stored in our database for station/object KC1DMA. If no packets are shown the sender has not sent any weather packets the latest 1 day(s).
| Time | Temp. | Humidity | Pressure | Rain* | Wind** | Luminosity | Snow |
|---|---|---|---|---|---|---|---|
| 1778030082 | 16.67° C | 69% | 1012.3 hPa | - | 1.79 m/s, 254° | 0 W/m² | - |
| 1778029778 | 16.67° C | 69% | 1012.3 hPa | - | 2.24 m/s, 132° | 0 W/m² | - |
| 1778029477 | 16.67° C | 69% | 1012.3 hPa | - | 2.24 m/s, 98° | 0 W/m² | - |
| 1778029173 | 16.67° C | 69% | 1012 hPa | - | 0.89 m/s, 127° | 0 W/m² | - |
| 1778028871 | 16.67° C | 69% | 1012.1 hPa | - | 1.34 m/s, 191° | 0 W/m² | - |
| 1778028566 | 16.67° C | 68% | 1011.9 hPa | - | 0.89 m/s, 170° | 0 W/m² | - |
| 1778028264 | 16.67° C | 68% | 1012 hPa | - | 2.24 m/s, 66° | 0 W/m² | - |
| 1778027960 | 16.67° C | 67% | 1011.9 hPa | - | 1.34 m/s, 288° | 0 W/m² | - |
| 1778027657 | 16.67° C | 67% | 1012 hPa | - | 1.34 m/s, 208° | 0 W/m² | - |
| 1778027353 | 16.67° C | 67% | 1011.5 hPa | - | 2.24 m/s, 171° | 0 W/m² | - |
| 1778027049 | 17.22° C | 67% | 1011.4 hPa | - | 1.79 m/s, 162° | 0 W/m² | - |
| 1778026745 | 17.22° C | 66% | 1011.6 hPa | - | 0.89 m/s, 269° | 0 W/m² | - |
| 1778026442 | 17.22° C | 66% | 1011.6 hPa | - | 0.89 m/s, 234° | 0 W/m² | - |
| 1778026139 | 17.22° C | 66% | 1011.4 hPa | - | 0.89 m/s, 216° | 0 W/m² | - |
| 1778025837 | 17.22° C | 66% | 1011.5 hPa | - | 0.45 m/s, 99° | 1 W/m² | - |
| 1778025533 | 17.22° C | 65% | 1011.3 hPa | - | 3.13 m/s, 161° | 1 W/m² | - |
| 1778025231 | 17.22° C | 65% | 1011.2 hPa | - | 0.45 m/s, 195° | 3 W/m² | - |
| 1778024928 | 17.78° C | 65% | 1011.3 hPa | - | 0.89 m/s, 295° | 5 W/m² | - |
| 1778024626 | 17.78° C | 64% | 1011 hPa | - | 1.79 m/s, 151° | 7 W/m² | - |
| 1778024322 | 17.78° C | 64% | 1011.2 hPa | - | 1.34 m/s, 164° | 11 W/m² | - |
| 1778024020 | 17.78° C | 65% | 1010.9 hPa | - | 1.79 m/s, 157° | 18 W/m² | - |
| 1778023717 | 18.33° C | 64% | 1010.9 hPa | - | 0.89 m/s, 272° | 22 W/m² | - |
| 1778023415 | 18.33° C | 63% | 1010.8 hPa | - | 3.58 m/s, 145° | 29 W/m² | - |
| 1778023111 | 18.89° C | 63% | 1010.9 hPa | - | 1.34 m/s, 92° | 35 W/m² | - |
| 1778022809 | 18.89° C | 62% | 1010.7 hPa | - | 0.89 m/s, 89° | 42 W/m² | - |
* Rain since midnight (hover to see other rain measurements)
** Current wind speed in m/s (hover to see current wind gust speed)